PSRMK BGKK-BGSF

Flight info

Callsign PSRMK
Flight time 2h 56m
Altitude 12000
Route DA DCT MASIK DCT PEVAR DCT FICWE
Aircraft C182/L-SDGRY/S

Departure

Time 2026-04-21 18:52
Airport Kulusuk Airport (BGKK)

Arrival

Time 2026-04-21 21:48
Airport Kangerlussuaq International Airport (BGSF)
Time Latitude Longitude Altitude Speed Heading
2026-04-21 18:45 65.57425 -37.13526 122 ft 0 kts 303°
2026-04-21 18:50 65.57425 -37.13528 122 ft 0 kts 289°
2026-04-21 18:50 65.57391 -37.13517 122 ft 8 kts 167°
2026-04-21 18:50 65.57345 -37.13481 122 ft 0 kts 162°
2026-04-21 18:50 65.57310 -37.13460 121 ft 12 kts 174°
2026-04-21 18:51 65.57287 -37.13587 122 ft 7 kts 285°
2026-04-21 18:51 65.57299 -37.13559 118 ft 0 kts 92°
2026-04-21 18:51 65.57299 -37.13529 120 ft 14 kts 88°
2026-04-21 18:51 65.57324 -37.12822 121 ft 70 kts 81°
2026-04-21 18:52 65.57417 -37.11338 243 ft 99 kts 81°
2026-04-21 18:52 65.57508 -37.09656 525 ft 104 kts 86°
2026-04-21 18:52 65.57577 -37.07870 779 ft 108 kts 85°
2026-04-21 18:52 65.57638 -37.06037 1037 ft 110 kts 85°
2026-04-21 18:53 65.57684 -37.04169 1356 ft 113 kts 98°
2026-04-21 18:53 65.57324 -37.02519 1602 ft 110 kts 126°
2026-04-21 18:53 65.56898 -37.00992 1845 ft 109 kts 142°
2026-04-21 18:53 65.56275 -37.00027 2108 ft 106 kts 152°
2026-04-21 18:54 65.55653 -36.99058 2370 ft 107 kts 152°
2026-04-21 18:54 65.55029 -36.98079 2633 ft 107 kts 152°
2026-04-21 18:54 65.54403 -36.97090 2893 ft 108 kts 152°
2026-04-21 18:54 65.53778 -36.96094 3157 ft 107 kts 153°
2026-04-21 18:55 65.53328 -36.95771 3320 ft 99 kts 182°
2026-04-21 18:55 65.52470 -36.95680 3638 ft 92 kts 221°
2026-04-21 18:55 65.52226 -36.97049 3905 ft 90 kts 250°
2026-04-21 18:55 65.52037 -36.98479 4151 ft 90 kts 250°
2026-04-21 18:56 65.51852 -36.99912 4417 ft 90 kts 250°
2026-04-21 18:56 65.51670 -37.01348 4674 ft 89 kts 250°
2026-04-21 18:56 65.51492 -37.02776 4941 ft 89 kts 250°
2026-04-21 18:56 65.51319 -37.04192 5199 ft 88 kts 250°
2026-04-21 18:57 65.51149 -37.05599 5462 ft 87 kts 250°
2026-04-21 18:57 65.50984 -37.06992 5712 ft 86 kts 250°
2026-04-21 18:57 65.50825 -37.08377 5964 ft 85 kts 250°
2026-04-21 18:57 65.50674 -37.09748 6222 ft 84 kts 250°
2026-04-21 18:58 65.50527 -37.11113 6473 ft 83 kts 250°
2026-04-21 18:58 65.50388 -37.12458 6735 ft 82 kts 250°
2026-04-21 18:58 65.50352 -37.13840 6993 ft 87 kts 270°
2026-04-21 18:58 65.50621 -37.15207 7230 ft 97 kts 294°
2026-04-21 18:59 65.51216 -37.16174 7467 ft 112 kts 327°
2026-04-21 18:59 65.51969 -37.16743 7670 ft 116 kts 327°
2026-04-21 18:59 65.52764 -37.17377 7856 ft 123 kts 329°
2026-04-21 18:59 65.53591 -37.18024 8041 ft 128 kts 329°
2026-04-21 19:00 65.54453 -37.18701 8242 ft 133 kts 329°
2026-04-21 19:00 65.55343 -37.19398 8421 ft 136 kts 330°
2026-04-21 19:00 65.56235 -37.20125 8609 ft 133 kts 324°
2026-04-21 19:00 65.56935 -37.21345 8779 ft 120 kts 299°
2026-04-21 19:01 65.57363 -37.22975 8960 ft 111 kts 279°
2026-04-21 19:01 65.57623 -37.24707 9135 ft 110 kts 278°
2026-04-21 19:01 65.57892 -37.26439 9330 ft 110 kts 278°
2026-04-21 19:01 65.58159 -37.28174 9506 ft 110 kts 278°
2026-04-21 19:02 65.58426 -37.29911 9687 ft 110 kts 277°
2026-04-21 19:02 65.58692 -37.31649 9871 ft 110 kts 277°
2026-04-21 19:02 65.58959 -37.33391 10060 ft 110 kts 277°
2026-04-21 19:02 65.59225 -37.35129 10251 ft 110 kts 277°
2026-04-21 19:03 65.59491 -37.36870 10443 ft 110 kts 277°
2026-04-21 19:03 65.59756 -37.38610 10606 ft 110 kts 277°
2026-04-21 19:03 65.60022 -37.40348 10768 ft 110 kts 277°
2026-04-21 19:03 65.60285 -37.42074 10937 ft 109 kts 277°
2026-04-21 19:04 65.60546 -37.43791 11107 ft 108 kts 276°
2026-04-21 19:04 65.60805 -37.45492 11275 ft 107 kts 276°
2026-04-21 19:04 65.61060 -37.47175 11449 ft 106 kts 276°
2026-04-21 19:04 65.61312 -37.48834 11618 ft 106 kts 276°
2026-04-21 19:05 65.61565 -37.50509 11792 ft 106 kts 276°
2026-04-21 19:05 65.61818 -37.52173 11960 ft 104 kts 276°
2026-04-21 19:05 65.62065 -37.53801 12124 ft 102 kts 275°
2026-04-21 19:05 65.62300 -37.55356 12302 ft 98 kts 275°
2026-04-21 19:06 65.62533 -37.56899 12470 ft 97 kts 274°
2026-04-21 19:06 65.62761 -37.58414 12643 ft 95 kts 274°
2026-04-21 19:06 65.62985 -37.59914 12748 ft 98 kts 274°
2026-04-21 19:06 65.63228 -37.61556 12770 ft 109 kts 276°
2026-04-21 19:07 65.63494 -37.63311 12772 ft 113 kts 277°
2026-04-21 19:07 65.63769 -37.65123 12769 ft 116 kts 277°
2026-04-21 19:07 65.64047 -37.66967 12770 ft 117 kts 277°
2026-04-21 19:07 65.64328 -37.68832 12766 ft 118 kts 277°
2026-04-21 19:08 65.64607 -37.70691 12773 ft 120 kts 277°
2026-04-21 19:08 65.64894 -37.72604 12774 ft 122 kts 277°
2026-04-21 19:08 65.65191 -37.74613 12769 ft 131 kts 278°
2026-04-21 19:08 65.65509 -37.76734 12775 ft 137 kts 278°
2026-04-21 19:09 65.65839 -37.78938 12763 ft 140 kts 278°
2026-04-21 19:09 65.66169 -37.81130 12775 ft 138 kts 278°
2026-04-21 19:09 65.66494 -37.83300 12767 ft 136 kts 278°
2026-04-21 19:09 65.66816 -37.85467 12768 ft 137 kts 278°
2026-04-21 19:10 65.67138 -37.87636 12765 ft 136 kts 278°
2026-04-21 19:10 65.67457 -37.89778 12767 ft 134 kts 278°
2026-04-21 19:10 65.67770 -37.91889 12767 ft 133 kts 277°
2026-04-21 19:10 65.68081 -37.93992 12763 ft 132 kts 278°
2026-04-21 19:11 65.68390 -37.96090 12762 ft 132 kts 278°
2026-04-21 19:11 65.68700 -37.98185 12762 ft 132 kts 277°
2026-04-21 19:11 65.69004 -38.00250 12759 ft 132 kts 277°
2026-04-21 19:11 65.69313 -38.02349 12764 ft 132 kts 277°
2026-04-21 19:12 65.69522 -38.03766 12760 ft 132 kts 277°
2026-04-21 19:12 65.69931 -38.06546 12763 ft 132 kts 277°
2026-04-21 19:12 65.70239 -38.08644 12765 ft 132 kts 277°
2026-04-21 19:12 65.70546 -38.10741 12765 ft 132 kts 277°
2026-04-21 19:13 65.70854 -38.12837 12762 ft 131 kts 277°
2026-04-21 19:13 65.71159 -38.14920 12764 ft 130 kts 277°
2026-04-21 19:13 65.71462 -38.16998 12771 ft 131 kts 277°
2026-04-21 19:13 65.71771 -38.19125 12772 ft 135 kts 278°
2026-04-21 19:14 65.72084 -38.21276 12771 ft 138 kts 278°
2026-04-21 19:14 65.72406 -38.23470 12767 ft 137 kts 277°
2026-04-21 19:14 65.72722 -38.25641 12770 ft 136 kts 277°
2026-04-21 19:14 65.73036 -38.27800 12767 ft 135 kts 277°
2026-04-21 19:15 65.73346 -38.29935 12769 ft 133 kts 277°
2026-04-21 19:15 65.73654 -38.32062 12767 ft 133 kts 277°
2026-04-21 19:15 65.73962 -38.34199 12766 ft 135 kts 277°
2026-04-21 19:15 65.74271 -38.36336 12773 ft 134 kts 277°
2026-04-21 19:16 65.74581 -38.38481 12770 ft 134 kts 277°
2026-04-21 19:16 65.74892 -38.40637 12765 ft 135 kts 277°
2026-04-21 19:16 65.75197 -38.42751 12765 ft 134 kts 277°
2026-04-21 19:16 65.75503 -38.44876 12767 ft 133 kts 276°
2026-04-21 19:17 65.76108 -38.49096 12767 ft 133 kts 276°
2026-04-21 19:17 65.76415 -38.51246 12760 ft 135 kts 277°
2026-04-21 19:17 65.76722 -38.53373 12765 ft 133 kts 276°
2026-04-21 19:18 65.77026 -38.55509 12764 ft 134 kts 276°
2026-04-21 19:18 65.77331 -38.57638 12761 ft 133 kts 276°
2026-04-21 19:18 65.77635 -38.59765 12758 ft 133 kts 276°
2026-04-21 19:18 65.77936 -38.61880 12755 ft 132 kts 276°
2026-04-21 19:19 65.78236 -38.63988 12758 ft 132 kts 276°
2026-04-21 19:19 65.78535 -38.66091 12755 ft 131 kts 276°
2026-04-21 19:19 65.78833 -38.68189 12756 ft 131 kts 276°
2026-04-21 19:19 65.79131 -38.70292 12757 ft 131 kts 276°
2026-04-21 19:20 65.79424 -38.72367 12756 ft 132 kts 276°
2026-04-21 19:20 65.79724 -38.74486 12758 ft 132 kts 276°
2026-04-21 19:20 65.80023 -38.76603 12759 ft 132 kts 276°
2026-04-21 19:20 65.80323 -38.78722 12758 ft 132 kts 275°
2026-04-21 19:21 65.80622 -38.80841 12757 ft 132 kts 275°
2026-04-21 19:21 65.80920 -38.82966 12757 ft 132 kts 275°
2026-04-21 19:21 65.81218 -38.85081 12759 ft 132 kts 275°
2026-04-21 19:21 65.81514 -38.87190 12758 ft 131 kts 275°
2026-04-21 19:22 65.81811 -38.89304 12758 ft 132 kts 275°
2026-04-21 19:22 65.82107 -38.91417 12755 ft 132 kts 275°
2026-04-21 19:22 65.82403 -38.93535 12758 ft 132 kts 275°
2026-04-21 19:22 65.82699 -38.95656 12757 ft 132 kts 275°
2026-04-21 19:23 65.82992 -38.97752 12760 ft 132 kts 275°
2026-04-21 19:23 65.83292 -38.99906 12758 ft 132 kts 275°
2026-04-21 19:23 65.83585 -39.02003 12753 ft 132 kts 275°
2026-04-21 19:23 65.83879 -39.04117 12753 ft 131 kts 275°
2026-04-21 19:24 65.84171 -39.06221 12752 ft 131 kts 275°
2026-04-21 19:24 65.84463 -39.08321 12756 ft 131 kts 275°
2026-04-21 19:24 65.84754 -39.10426 12756 ft 131 kts 275°
2026-04-21 19:24 65.85044 -39.12524 12754 ft 131 kts 275°
2026-04-21 19:25 65.85335 -39.14627 12756 ft 131 kts 275°
2026-04-21 19:25 65.85626 -39.16738 12758 ft 131 kts 275°
2026-04-21 19:25 65.85919 -39.18858 12756 ft 131 kts 275°
2026-04-21 19:25 65.86210 -39.20973 12753 ft 131 kts 275°
2026-04-21 19:26 65.86500 -39.23078 12756 ft 131 kts 275°
2026-04-21 19:26 65.86790 -39.25190 12756 ft 131 kts 274°
2026-04-21 19:26 65.87079 -39.27294 12755 ft 131 kts 275°
2026-04-21 19:26 65.87367 -39.29400 12755 ft 131 kts 275°
2026-04-21 19:27 65.87652 -39.31481 12755 ft 131 kts 274°
2026-04-21 19:27 65.87941 -39.33590 12752 ft 131 kts 274°
2026-04-21 19:27 65.88229 -39.35699 12752 ft 131 kts 274°
2026-04-21 19:27 65.88516 -39.37805 12752 ft 131 kts 274°
2026-04-21 19:28 65.88803 -39.39911 12752 ft 130 kts 274°
2026-04-21 19:28 65.89089 -39.42015 12753 ft 130 kts 274°
2026-04-21 19:28 65.89376 -39.44126 12751 ft 130 kts 274°
2026-04-21 19:28 65.89661 -39.46226 12750 ft 130 kts 274°
2026-04-21 19:29 65.89945 -39.48321 12748 ft 129 kts 274°
2026-04-21 19:29 65.90228 -39.50411 12751 ft 129 kts 274°
2026-04-21 19:29 65.90507 -39.52475 12749 ft 129 kts 274°
2026-04-21 19:29 65.90788 -39.54559 12751 ft 129 kts 274°
2026-04-21 19:30 65.91071 -39.56655 12750 ft 129 kts 274°
2026-04-21 19:30 65.91353 -39.58744 12748 ft 129 kts 274°
2026-04-21 19:30 65.91543 -39.60156 12748 ft 129 kts 274°
2026-04-21 19:30 65.91914 -39.62919 12745 ft 129 kts 274°
2026-04-21 19:31 65.92100 -39.64303 12746 ft 129 kts 274°
2026-04-21 19:31 65.92380 -39.66391 12748 ft 129 kts 274°
2026-04-21 19:31 65.92659 -39.68474 12751 ft 128 kts 274°
2026-04-21 19:31 65.92937 -39.70557 12749 ft 129 kts 274°
2026-04-21 19:32 65.93217 -39.72647 12749 ft 129 kts 274°
2026-04-21 19:32 65.93495 -39.74730 12749 ft 128 kts 273°
2026-04-21 19:32 65.93772 -39.76807 12745 ft 128 kts 273°
2026-04-21 19:32 65.94047 -39.78874 12744 ft 128 kts 273°
2026-04-21 19:33 65.94323 -39.80949 12746 ft 128 kts 273°
2026-04-21 19:33 65.94600 -39.83033 12747 ft 129 kts 273°
2026-04-21 19:33 65.94876 -39.85116 12745 ft 129 kts 273°
2026-04-21 19:33 65.95153 -39.87208 12744 ft 129 kts 273°
2026-04-21 19:34 65.95430 -39.89300 12744 ft 129 kts 273°
2026-04-21 19:34 65.95706 -39.91389 12743 ft 129 kts 273°
2026-04-21 19:34 65.95982 -39.93478 12747 ft 129 kts 273°
2026-04-21 19:34 65.96257 -39.95558 12748 ft 128 kts 273°
2026-04-21 19:35 65.96529 -39.97631 12748 ft 128 kts 273°
2026-04-21 19:35 65.97072 -40.01763 12746 ft 128 kts 273°
2026-04-21 19:35 65.97344 -40.03843 12748 ft 128 kts 273°
2026-04-21 19:36 65.97616 -40.05921 12747 ft 128 kts 273°
2026-04-21 19:36 65.97889 -40.08007 12743 ft 128 kts 273°
2026-04-21 19:36 65.98161 -40.10088 12742 ft 128 kts 273°
2026-04-21 19:36 65.98431 -40.12163 12745 ft 128 kts 272°
2026-04-21 19:37 65.98701 -40.14238 12743 ft 127 kts 272°
2026-04-21 19:37 65.98970 -40.16302 12744 ft 127 kts 272°
2026-04-21 19:37 65.99238 -40.18367 12747 ft 127 kts 272°
2026-04-21 19:37 65.99506 -40.20433 12741 ft 127 kts 272°
2026-04-21 19:38 65.99773 -40.22499 12745 ft 127 kts 272°
2026-04-21 19:38 66.00041 -40.24570 12743 ft 127 kts 272°
2026-04-21 19:38 66.00308 -40.26637 12745 ft 127 kts 272°
2026-04-21 19:38 66.00575 -40.28701 12745 ft 127 kts 272°
2026-04-21 19:39 66.00837 -40.30740 12742 ft 127 kts 272°
2026-04-21 19:39 66.01104 -40.32811 12743 ft 127 kts 272°
2026-04-21 19:39 66.01371 -40.34884 12744 ft 127 kts 272°
2026-04-21 19:39 66.01637 -40.36954 12742 ft 127 kts 272°
2026-04-21 19:40 66.01903 -40.39031 12746 ft 127 kts 272°
2026-04-21 19:40 66.02169 -40.41111 12741 ft 127 kts 272°
2026-04-21 19:40 66.02435 -40.43186 12739 ft 127 kts 272°
2026-04-21 19:40 66.02700 -40.45260 12741 ft 127 kts 272°
2026-04-21 19:41 66.02965 -40.47338 12739 ft 127 kts 272°
2026-04-21 19:41 66.03229 -40.49408 12741 ft 127 kts 272°
2026-04-21 19:41 66.03493 -40.51481 12739 ft 127 kts 272°
2026-04-21 19:41 66.03756 -40.53549 12737 ft 127 kts 272°
2026-04-21 19:42 66.04018 -40.55614 12738 ft 126 kts 272°
2026-04-21 19:42 66.04279 -40.57675 12738 ft 126 kts 272°
2026-04-21 19:42 66.04540 -40.59734 12739 ft 126 kts 272°
2026-04-21 19:42 66.04800 -40.61786 12739 ft 126 kts 272°
2026-04-21 19:43 66.05059 -40.63840 12738 ft 126 kts 272°
2026-04-21 19:43 66.05318 -40.65892 12735 ft 126 kts 272°
2026-04-21 19:43 66.05577 -40.67943 12736 ft 125 kts 272°
2026-04-21 19:43 66.05832 -40.69971 12737 ft 125 kts 272°
2026-04-21 19:44 66.06089 -40.72020 12737 ft 125 kts 272°
2026-04-21 19:44 66.06346 -40.74069 12732 ft 125 kts 272°
2026-04-21 19:44 66.06604 -40.76122 12731 ft 125 kts 271°
2026-04-21 19:44 66.06861 -40.78179 12734 ft 126 kts 271°
2026-04-21 19:45 66.07119 -40.80234 12735 ft 126 kts 271°
2026-04-21 19:45 66.07376 -40.82290 12737 ft 125 kts 271°
2026-04-21 19:45 66.07631 -40.84341 12734 ft 125 kts 271°
2026-04-21 19:45 66.07887 -40.86396 12732 ft 125 kts 271°
2026-04-21 19:46 66.08143 -40.88447 12731 ft 125 kts 271°
2026-04-21 19:46 66.08398 -40.90503 12729 ft 125 kts 271°
2026-04-21 19:46 66.08653 -40.92556 12728 ft 125 kts 271°
2026-04-21 19:46 66.08907 -40.94607 12731 ft 125 kts 271°
2026-04-21 19:47 66.09161 -40.96660 12729 ft 125 kts 271°
2026-04-21 19:47 66.09415 -40.98714 12733 ft 125 kts 271°
2026-04-21 19:47 66.09670 -41.00774 12727 ft 126 kts 271°
2026-04-21 19:47 66.09921 -41.02809 12725 ft 126 kts 271°
2026-04-21 19:48 66.10174 -41.04867 12728 ft 125 kts 271°
2026-04-21 19:48 66.10427 -41.06925 12728 ft 125 kts 271°
2026-04-21 19:48 66.10681 -41.08991 12730 ft 126 kts 271°
2026-04-21 19:48 66.10935 -41.11056 12727 ft 126 kts 271°
2026-04-21 19:49 66.11187 -41.13117 12727 ft 125 kts 271°
2026-04-21 19:49 66.11439 -41.15176 12729 ft 125 kts 271°
2026-04-21 19:49 66.11690 -41.17229 12726 ft 125 kts 271°
2026-04-21 19:49 66.11941 -41.19283 12726 ft 125 kts 271°
2026-04-21 19:50 66.12110 -41.20669 12727 ft 125 kts 271°
2026-04-21 19:50 66.12441 -41.23391 12725 ft 125 kts 271°
2026-04-21 19:50 66.12691 -41.25445 12726 ft 125 kts 271°
2026-04-21 19:50 66.12941 -41.27501 12724 ft 125 kts 271°
2026-04-21 19:51 66.13190 -41.29555 12722 ft 125 kts 271°
2026-04-21 19:51 66.13439 -41.31613 12722 ft 125 kts 271°
2026-04-21 19:51 66.13689 -41.33680 12721 ft 125 kts 271°
2026-04-21 19:51 66.13938 -41.35738 12723 ft 125 kts 271°
2026-04-21 19:52 66.14187 -41.37804 12721 ft 125 kts 271°
2026-04-21 19:52 66.14436 -41.39863 12723 ft 125 kts 271°
2026-04-21 19:52 66.14681 -41.41906 12718 ft 125 kts 271°
2026-04-21 19:52 66.14933 -41.43997 12718 ft 125 kts 271°
2026-04-21 19:53 66.15178 -41.46039 12718 ft 126 kts 271°
2026-04-21 19:53 66.15426 -41.48111 12720 ft 125 kts 271°
2026-04-21 19:53 66.15674 -41.50179 12721 ft 125 kts 271°
2026-04-21 19:53 66.15920 -41.52237 12720 ft 125 kts 271°
2026-04-21 19:54 66.16167 -41.54303 12719 ft 125 kts 271°
2026-04-21 19:54 66.16413 -41.56366 12717 ft 125 kts 271°
2026-04-21 19:54 66.16659 -41.58432 12717 ft 125 kts 271°
2026-04-21 19:54 66.16904 -41.60496 12714 ft 125 kts 271°
2026-04-21 19:55 66.17149 -41.62560 12714 ft 125 kts 271°
2026-04-21 19:55 66.17395 -41.64631 12714 ft 125 kts 271°
2026-04-21 19:55 66.17640 -41.66704 12710 ft 126 kts 271°
2026-04-21 19:55 66.17886 -41.68775 12712 ft 126 kts 271°
2026-04-21 19:56 66.18131 -41.70854 12712 ft 126 kts 271°
2026-04-21 19:56 66.18375 -41.72917 12713 ft 125 kts 271°
2026-04-21 19:56 66.18618 -41.74979 12712 ft 124 kts 271°
2026-04-21 19:56 66.18857 -41.77011 12710 ft 125 kts 271°
2026-04-21 19:57 66.19099 -41.79072 12713 ft 125 kts 271°
2026-04-21 19:57 66.19341 -41.81134 12708 ft 125 kts 271°
2026-04-21 19:57 66.19584 -41.83203 12707 ft 125 kts 271°
2026-04-21 19:57 66.19826 -41.85271 12705 ft 125 kts 271°
2026-04-21 19:58 66.20068 -41.87343 12703 ft 125 kts 271°
2026-04-21 19:58 66.20310 -41.89418 12706 ft 125 kts 271°
2026-04-21 19:58 66.20553 -41.91497 12706 ft 126 kts 271°
2026-04-21 19:58 66.20795 -41.93581 12707 ft 126 kts 271°
2026-04-21 19:59 66.21038 -41.95667 12705 ft 126 kts 271°
2026-04-21 19:59 66.21278 -41.97733 12705 ft 126 kts 271°
2026-04-21 19:59 66.21523 -41.99851 12703 ft 126 kts 271°
2026-04-21 19:59 66.21766 -42.01950 12700 ft 127 kts 271°
2026-04-21 20:00 66.22009 -42.04047 12695 ft 127 kts 271°
2026-04-21 20:00 66.22251 -42.06142 12698 ft 127 kts 271°
2026-04-21 20:00 66.22490 -42.08216 12699 ft 127 kts 271°
2026-04-21 20:00 66.22733 -42.10320 12696 ft 127 kts 271°
2026-04-21 20:01 66.22974 -42.12413 12695 ft 126 kts 271°
2026-04-21 20:01 66.23214 -42.14509 12691 ft 126 kts 270°
2026-04-21 20:01 66.23454 -42.16603 12696 ft 127 kts 271°
2026-04-21 20:01 66.23695 -42.18706 12687 ft 127 kts 271°
2026-04-21 20:02 66.23936 -42.20809 12686 ft 127 kts 270°
2026-04-21 20:02 66.24176 -42.22910 12679 ft 127 kts 270°
2026-04-21 20:02 66.24416 -42.25019 12687 ft 127 kts 270°
2026-04-21 20:02 66.24656 -42.27123 12684 ft 127 kts 270°
2026-04-21 20:03 66.24895 -42.29224 12683 ft 127 kts 270°
2026-04-21 20:03 66.25132 -42.31305 12677 ft 127 kts 270°
2026-04-21 20:03 66.25373 -42.33432 12677 ft 126 kts 270°
2026-04-21 20:03 66.25607 -42.35496 12675 ft 126 kts 270°
2026-04-21 20:04 66.25844 -42.37590 12672 ft 126 kts 270°
2026-04-21 20:04 66.26081 -42.39690 12679 ft 126 kts 271°
2026-04-21 20:04 66.26318 -42.41791 12683 ft 126 kts 271°
2026-04-21 20:04 66.26555 -42.43895 12679 ft 127 kts 271°
2026-04-21 20:05 66.26791 -42.45997 12684 ft 127 kts 271°
2026-04-21 20:05 66.27028 -42.48108 12678 ft 127 kts 271°
2026-04-21 20:05 66.27265 -42.50220 12679 ft 127 kts 271°
2026-04-21 20:05 66.27503 -42.52346 12680 ft 128 kts 271°
2026-04-21 20:06 66.27742 -42.54474 12677 ft 128 kts 271°
2026-04-21 20:06 66.27980 -42.56604 12676 ft 128 kts 271°
2026-04-21 20:06 66.28218 -42.58742 12682 ft 128 kts 271°
2026-04-21 20:06 66.28454 -42.60855 12674 ft 129 kts 271°
2026-04-21 20:07 66.28692 -42.63002 12679 ft 129 kts 271°
2026-04-21 20:07 66.28932 -42.65160 12678 ft 130 kts 271°
2026-04-21 20:07 66.29094 -42.66617 12682 ft 130 kts 271°
2026-04-21 20:07 66.29412 -42.69485 12682 ft 130 kts 271°
2026-04-21 20:08 66.29652 -42.71651 12676 ft 130 kts 271°
2026-04-21 20:08 66.29891 -42.73821 12679 ft 130 kts 271°
2026-04-21 20:08 66.30131 -42.75996 12678 ft 130 kts 271°
2026-04-21 20:08 66.30371 -42.78174 12679 ft 131 kts 271°
2026-04-21 20:09 66.30612 -42.80359 12675 ft 131 kts 271°
2026-04-21 20:09 66.30852 -42.82546 12676 ft 131 kts 271°
2026-04-21 20:09 66.31093 -42.84742 12675 ft 131 kts 271°
2026-04-21 20:09 66.31333 -42.86933 12677 ft 131 kts 271°
2026-04-21 20:10 66.31573 -42.89131 12674 ft 131 kts 271°
2026-04-21 20:10 66.31813 -42.91324 12676 ft 131 kts 271°
2026-04-21 20:10 66.32049 -42.93493 12669 ft 132 kts 271°
2026-04-21 20:10 66.32289 -42.95703 12671 ft 132 kts 271°
2026-04-21 20:11 66.32529 -42.97908 12673 ft 132 kts 271°
2026-04-21 20:11 66.32770 -43.00126 12673 ft 133 kts 271°
2026-04-21 20:11 66.33011 -43.02356 12671 ft 133 kts 271°
2026-04-21 20:11 66.33253 -43.04591 12670 ft 134 kts 271°
2026-04-21 20:12 66.33495 -43.06827 12669 ft 134 kts 271°
2026-04-21 20:12 66.33737 -43.09071 12670 ft 134 kts 271°
2026-04-21 20:12 66.33897 -43.10559 12665 ft 134 kts 271°
2026-04-21 20:12 66.34221 -43.13564 12669 ft 134 kts 271°
2026-04-21 20:13 66.34463 -43.15817 12663 ft 134 kts 271°
2026-04-21 20:13 66.34704 -43.18067 12666 ft 135 kts 271°
2026-04-21 20:13 66.34946 -43.20324 12663 ft 135 kts 271°
2026-04-21 20:13 66.35187 -43.22585 12662 ft 135 kts 272°
2026-04-21 20:14 66.35429 -43.24853 12662 ft 136 kts 272°
2026-04-21 20:14 66.35672 -43.27127 12661 ft 136 kts 272°
2026-04-21 20:14 66.35915 -43.29414 12658 ft 137 kts 272°
2026-04-21 20:14 66.36158 -43.31700 12661 ft 137 kts 272°
2026-04-21 20:15 66.36398 -43.33966 12658 ft 137 kts 272°
2026-04-21 20:15 66.36642 -43.36270 12658 ft 137 kts 272°
2026-04-21 20:15 66.36887 -43.38580 12659 ft 138 kts 272°
2026-04-21 20:15 66.37131 -43.40896 12656 ft 138 kts 272°
2026-04-21 20:16 66.37375 -43.43211 12655 ft 138 kts 272°
2026-04-21 20:16 66.37619 -43.45533 12653 ft 138 kts 272°
2026-04-21 20:16 66.37862 -43.47843 12649 ft 138 kts 272°
2026-04-21 20:16 66.38106 -43.50166 12650 ft 138 kts 272°
2026-04-21 20:17 66.38267 -43.51702 12651 ft 138 kts 272°
2026-04-21 20:17 66.38588 -43.54775 12647 ft 138 kts 272°
2026-04-21 20:17 66.38831 -43.57101 12647 ft 138 kts 272°
2026-04-21 20:17 66.39073 -43.59425 12645 ft 139 kts 272°
2026-04-21 20:18 66.39233 -43.60966 12641 ft 139 kts 272°
2026-04-21 20:18 66.39476 -43.63301 12640 ft 139 kts 272°
2026-04-21 20:18 66.39718 -43.65639 12642 ft 139 kts 272°
2026-04-21 20:18 66.39961 -43.67982 12640 ft 139 kts 272°
2026-04-21 20:19 66.40203 -43.70327 12637 ft 140 kts 272°
2026-04-21 20:19 66.40446 -43.72681 12636 ft 140 kts 272°
2026-04-21 20:19 66.40689 -43.75036 12635 ft 140 kts 272°
2026-04-21 20:19 66.40932 -43.77397 12634 ft 141 kts 272°
2026-04-21 20:20 66.41176 -43.79766 12629 ft 141 kts 272°
2026-04-21 20:20 66.41419 -43.82133 12631 ft 141 kts 272°
2026-04-21 20:20 66.41661 -43.84503 12629 ft 141 kts 272°
2026-04-21 20:20 66.41904 -43.86877 12626 ft 141 kts 272°
2026-04-21 20:21 66.42146 -43.89252 12625 ft 141 kts 272°
2026-04-21 20:21 66.42388 -43.91629 12624 ft 141 kts 272°
2026-04-21 20:21 66.42630 -43.94005 12626 ft 141 kts 272°
2026-04-21 20:21 66.42871 -43.96382 12620 ft 141 kts 272°
2026-04-21 20:22 66.43112 -43.98757 12620 ft 141 kts 272°
2026-04-21 20:22 66.43593 -44.03516 12611 ft 141 kts 272°
2026-04-21 20:22 66.43833 -44.05895 12613 ft 141 kts 272°
2026-04-21 20:23 66.44073 -44.08282 12613 ft 141 kts 272°
2026-04-21 20:23 66.44313 -44.10663 12610 ft 141 kts 272°
2026-04-21 20:23 66.44553 -44.13054 12607 ft 142 kts 272°
2026-04-21 20:23 66.44791 -44.15440 12609 ft 142 kts 272°
2026-04-21 20:24 66.45031 -44.17836 12603 ft 142 kts 272°
2026-04-21 20:24 66.45267 -44.20198 12599 ft 142 kts 272°
2026-04-21 20:24 66.45506 -44.22595 12602 ft 142 kts 272°
2026-04-21 20:24 66.45745 -44.25007 12595 ft 143 kts 272°
2026-04-21 20:25 66.45985 -44.27416 12597 ft 143 kts 272°
2026-04-21 20:25 66.46223 -44.29822 12594 ft 143 kts 272°
2026-04-21 20:25 66.46462 -44.32232 12586 ft 143 kts 271°
2026-04-21 20:25 66.46700 -44.34644 12587 ft 143 kts 271°
2026-04-21 20:26 66.46938 -44.37057 12588 ft 143 kts 272°
2026-04-21 20:26 66.47175 -44.39469 12580 ft 143 kts 271°
2026-04-21 20:26 66.47413 -44.41884 12584 ft 143 kts 271°
2026-04-21 20:26 66.47649 -44.44294 12578 ft 143 kts 271°
2026-04-21 20:27 66.47886 -44.46712 12580 ft 143 kts 271°
2026-04-21 20:27 66.48119 -44.49099 12576 ft 143 kts 271°
2026-04-21 20:27 66.48355 -44.51521 12574 ft 143 kts 271°
2026-04-21 20:27 66.48592 -44.53948 12574 ft 143 kts 271°
2026-04-21 20:28 66.48827 -44.56368 12569 ft 143 kts 271°
2026-04-21 20:28 66.49063 -44.58798 12571 ft 143 kts 271°
2026-04-21 20:28 66.49298 -44.61227 12568 ft 144 kts 271°
2026-04-21 20:28 66.49533 -44.63656 12568 ft 144 kts 271°
2026-04-21 20:29 66.49768 -44.66090 12561 ft 144 kts 271°
2026-04-21 20:29 66.50002 -44.68526 12569 ft 144 kts 271°
2026-04-21 20:29 66.50237 -44.70961 12558 ft 144 kts 271°
2026-04-21 20:29 66.50470 -44.73395 12559 ft 144 kts 271°
2026-04-21 20:30 66.50703 -44.75822 12553 ft 143 kts 271°
2026-04-21 20:30 66.50936 -44.78256 12549 ft 143 kts 271°
2026-04-21 20:30 66.51167 -44.80672 12548 ft 143 kts 271°
2026-04-21 20:30 66.51397 -44.83092 12543 ft 142 kts 271°
2026-04-21 20:31 66.51627 -44.85508 12544 ft 142 kts 270°
2026-04-21 20:31 66.51853 -44.87893 12540 ft 142 kts 271°
2026-04-21 20:31 66.52083 -44.90311 12540 ft 142 kts 271°
2026-04-21 20:31 66.52311 -44.92723 12540 ft 142 kts 271°
2026-04-21 20:32 66.52539 -44.95141 12543 ft 143 kts 270°
2026-04-21 20:32 66.52767 -44.97560 12542 ft 143 kts 271°
2026-04-21 20:32 66.52999 -45.00021 12531 ft 143 kts 271°
2026-04-21 20:32 66.53224 -45.02418 12529 ft 143 kts 271°
2026-04-21 20:33 66.53453 -45.04857 12531 ft 144 kts 270°
2026-04-21 20:33 66.53681 -45.07299 12525 ft 144 kts 270°
2026-04-21 20:33 66.53910 -45.09742 12519 ft 144 kts 270°
2026-04-21 20:33 66.54138 -45.12195 12524 ft 144 kts 270°
2026-04-21 20:34 66.54366 -45.14637 12523 ft 144 kts 270°
2026-04-21 20:34 66.54593 -45.17082 12512 ft 144 kts 270°
2026-04-21 20:34 66.54819 -45.19525 12513 ft 144 kts 270°
2026-04-21 20:34 66.55046 -45.21965 12515 ft 143 kts 270°
2026-04-21 20:35 66.55270 -45.24400 12509 ft 143 kts 270°
2026-04-21 20:35 66.55496 -45.26844 12510 ft 143 kts 270°
2026-04-21 20:35 66.55720 -45.29278 12517 ft 143 kts 270°
2026-04-21 20:35 66.55940 -45.31678 12503 ft 143 kts 270°
2026-04-21 20:36 66.56166 -45.34141 12503 ft 143 kts 270°
2026-04-21 20:36 66.56387 -45.36561 12495 ft 142 kts 270°
2026-04-21 20:36 66.56607 -45.38962 12497 ft 143 kts 270°
2026-04-21 20:36 66.56828 -45.41390 12505 ft 143 kts 270°
2026-04-21 20:37 66.57049 -45.43816 12496 ft 143 kts 270°
2026-04-21 20:37 66.57270 -45.46249 12491 ft 143 kts 270°
2026-04-21 20:37 66.57491 -45.48680 12486 ft 143 kts 270°
2026-04-21 20:37 66.57711 -45.51111 12485 ft 142 kts 269°
2026-04-21 20:38 66.57930 -45.53540 12483 ft 142 kts 269°
2026-04-21 20:38 66.58148 -45.55962 12478 ft 142 kts 269°
2026-04-21 20:38 66.58367 -45.58396 12480 ft 143 kts 269°
2026-04-21 20:38 66.58586 -45.60831 12477 ft 143 kts 269°
2026-04-21 20:39 66.58805 -45.63271 12475 ft 143 kts 269°
2026-04-21 20:39 66.59023 -45.65704 12477 ft 143 kts 269°
2026-04-21 20:39 66.59240 -45.68137 12474 ft 142 kts 269°
2026-04-21 20:39 66.59456 -45.70564 12476 ft 142 kts 269°
2026-04-21 20:40 66.59673 -45.73000 12475 ft 142 kts 269°
2026-04-21 20:40 66.59886 -45.75394 12472 ft 142 kts 269°
2026-04-21 20:40 66.60101 -45.77824 12469 ft 142 kts 269°
2026-04-21 20:40 66.60316 -45.80255 12467 ft 142 kts 269°
2026-04-21 20:41 66.60531 -45.82688 12465 ft 142 kts 269°
2026-04-21 20:41 66.60745 -45.85115 12465 ft 142 kts 269°
2026-04-21 20:41 66.60958 -45.87538 12460 ft 142 kts 269°
2026-04-21 20:41 66.61171 -45.89966 12462 ft 142 kts 269°
2026-04-21 20:42 66.61383 -45.92385 12459 ft 142 kts 269°
2026-04-21 20:42 66.61595 -45.94809 12458 ft 142 kts 269°
2026-04-21 20:42 66.61807 -45.97242 12455 ft 142 kts 269°
2026-04-21 20:42 66.62016 -45.99635 12456 ft 142 kts 269°
2026-04-21 20:43 66.62227 -46.02071 12451 ft 142 kts 269°
2026-04-21 20:43 66.62439 -46.04508 12449 ft 143 kts 269°
2026-04-21 20:43 66.62650 -46.06942 12447 ft 142 kts 269°
2026-04-21 20:43 66.62861 -46.09383 12447 ft 142 kts 269°
2026-04-21 20:44 66.63071 -46.11816 12448 ft 142 kts 269°
2026-04-21 20:44 66.63281 -46.14256 12446 ft 142 kts 269°
2026-04-21 20:44 66.63490 -46.16683 12445 ft 142 kts 268°
2026-04-21 20:44 66.63698 -46.19112 12443 ft 141 kts 268°
2026-04-21 20:45 66.63905 -46.21536 12442 ft 141 kts 268°
2026-04-21 20:45 66.64113 -46.23967 12442 ft 142 kts 268°
2026-04-21 20:45 66.64320 -46.26396 12440 ft 142 kts 268°
2026-04-21 20:45 66.64526 -46.28819 12441 ft 142 kts 268°
2026-04-21 20:46 66.64729 -46.31216 12439 ft 142 kts 268°
2026-04-21 20:46 66.64935 -46.33646 12436 ft 142 kts 268°
2026-04-21 20:46 66.65141 -46.36072 12438 ft 141 kts 268°
2026-04-21 20:46 66.65345 -46.38498 12431 ft 141 kts 268°
2026-04-21 20:47 66.65549 -46.40919 12434 ft 141 kts 268°
2026-04-21 20:47 66.65753 -46.43347 12434 ft 141 kts 268°
2026-04-21 20:47 66.65957 -46.45775 12428 ft 141 kts 268°
2026-04-21 20:47 66.66160 -46.48203 12429 ft 141 kts 268°
2026-04-21 20:48 66.66363 -46.50624 12426 ft 141 kts 268°
2026-04-21 20:48 66.66565 -46.53050 12428 ft 141 kts 268°
2026-04-21 20:48 66.66767 -46.55476 12426 ft 141 kts 268°
2026-04-21 20:48 66.66968 -46.57899 12425 ft 141 kts 268°
2026-04-21 20:49 66.67169 -46.60318 12424 ft 141 kts 267°
2026-04-21 20:49 66.67369 -46.62739 12427 ft 141 kts 268°
2026-04-21 20:49 66.67569 -46.65160 12424 ft 141 kts 268°
2026-04-21 20:49 66.67769 -46.67580 12424 ft 141 kts 268°
2026-04-21 20:50 66.67965 -46.69972 12418 ft 141 kts 268°
2026-04-21 20:50 66.68164 -46.72399 12422 ft 141 kts 268°
2026-04-21 20:50 66.68362 -46.74816 12422 ft 141 kts 267°
2026-04-21 20:50 66.68560 -46.77236 12418 ft 141 kts 267°
2026-04-21 20:51 66.68758 -46.79660 12419 ft 141 kts 267°
2026-04-21 20:51 66.68955 -46.82081 12416 ft 141 kts 267°
2026-04-21 20:51 66.69151 -46.84498 12418 ft 141 kts 267°
2026-04-21 20:51 66.69348 -46.86920 12418 ft 140 kts 267°
2026-04-21 20:52 66.69543 -46.89338 12418 ft 140 kts 267°
2026-04-21 20:52 66.69739 -46.91761 12414 ft 141 kts 267°
2026-04-21 20:52 66.69945 -46.94149 12413 ft 143 kts 272°
2026-04-21 20:52 66.70324 -46.96532 12412 ft 147 kts 278°
2026-04-21 20:53 66.70704 -46.98926 12413 ft 147 kts 277°
2026-04-21 20:53 66.71082 -47.01325 12414 ft 147 kts 277°
2026-04-21 20:53 66.71460 -47.03722 12414 ft 147 kts 277°
2026-04-21 20:53 66.71838 -47.06121 12415 ft 147 kts 277°
2026-04-21 20:54 66.72217 -47.08529 12418 ft 147 kts 277°
2026-04-21 20:54 66.72595 -47.10929 12410 ft 147 kts 277°
2026-04-21 20:54 66.72973 -47.13333 12414 ft 147 kts 277°
2026-04-21 20:54 66.73350 -47.15742 12410 ft 148 kts 277°
2026-04-21 20:55 66.73730 -47.18163 12412 ft 148 kts 277°
2026-04-21 20:55 66.74108 -47.20580 12410 ft 148 kts 277°
2026-04-21 20:55 66.74487 -47.23003 12410 ft 148 kts 277°
2026-04-21 20:55 66.74866 -47.25429 12408 ft 148 kts 277°
2026-04-21 20:56 66.75243 -47.27848 12408 ft 148 kts 277°
2026-04-21 20:56 66.75621 -47.30276 12413 ft 148 kts 277°
2026-04-21 20:56 66.75992 -47.32663 12408 ft 148 kts 277°
2026-04-21 20:56 66.76368 -47.35085 12410 ft 148 kts 277°
2026-04-21 20:57 66.76744 -47.37506 12411 ft 148 kts 277°
2026-04-21 20:57 66.77118 -47.39926 12407 ft 148 kts 277°
2026-04-21 20:57 66.77493 -47.42349 12408 ft 148 kts 277°
2026-04-21 20:57 66.77868 -47.44774 12411 ft 148 kts 277°
2026-04-21 20:58 66.78241 -47.47191 12409 ft 148 kts 277°
2026-04-21 20:58 66.78615 -47.49618 12406 ft 148 kts 277°
2026-04-21 20:58 66.78988 -47.52044 12409 ft 148 kts 277°
2026-04-21 20:58 66.79361 -47.54473 12406 ft 148 kts 277°
2026-04-21 20:59 66.79735 -47.56907 12409 ft 148 kts 277°
2026-04-21 20:59 66.80108 -47.59338 12411 ft 148 kts 277°
2026-04-21 20:59 66.80479 -47.61764 12407 ft 148 kts 276°
2026-04-21 20:59 66.80851 -47.64196 12407 ft 148 kts 276°
2026-04-21 21:00 66.81222 -47.66633 12410 ft 148 kts 276°
2026-04-21 21:00 66.81595 -47.69078 12408 ft 148 kts 276°
2026-04-21 21:00 66.81968 -47.71524 12408 ft 148 kts 276°
2026-04-21 21:00 66.82339 -47.73961 12408 ft 148 kts 276°
2026-04-21 21:01 66.82709 -47.76400 12406 ft 148 kts 276°
2026-04-21 21:01 66.83079 -47.78840 12410 ft 148 kts 276°
2026-04-21 21:01 66.83450 -47.81289 12405 ft 149 kts 276°
2026-04-21 21:01 66.83820 -47.83735 12404 ft 148 kts 276°
2026-04-21 21:02 66.84190 -47.86180 12408 ft 148 kts 276°
2026-04-21 21:02 66.84553 -47.88584 12411 ft 148 kts 276°
2026-04-21 21:02 66.84926 -47.91062 12411 ft 148 kts 276°
2026-04-21 21:02 66.85170 -47.92684 12411 ft 149 kts 276°
2026-04-21 21:03 66.85658 -47.95929 12412 ft 148 kts 276°
2026-04-21 21:03 66.86026 -47.98384 12406 ft 148 kts 276°
2026-04-21 21:03 66.86394 -48.00835 12406 ft 148 kts 276°
2026-04-21 21:03 66.86760 -48.03285 12407 ft 148 kts 276°
2026-04-21 21:04 66.87003 -48.04911 12409 ft 149 kts 276°
2026-04-21 21:04 66.87372 -48.07382 12412 ft 149 kts 276°
2026-04-21 21:04 66.87742 -48.09868 12407 ft 150 kts 276°
2026-04-21 21:04 66.88113 -48.12350 12410 ft 150 kts 276°
2026-04-21 21:05 66.88483 -48.14835 12409 ft 150 kts 276°
2026-04-21 21:05 66.88854 -48.17337 12411 ft 151 kts 276°
2026-04-21 21:05 66.89224 -48.19830 12412 ft 150 kts 276°
2026-04-21 21:05 66.89391 -48.22263 12405 ft 131 kts 250°
2026-04-21 21:06 66.89290 -48.24560 12405 ft 132 kts 250°
2026-04-21 21:06 66.89221 -48.26908 12407 ft 133 kts 252°
2026-04-21 21:06 66.89168 -48.29263 12404 ft 134 kts 252°
2026-04-21 21:06 66.89118 -48.31627 12402 ft 134 kts 252°
2026-04-21 21:07 66.89070 -48.33993 12407 ft 134 kts 252°
2026-04-21 21:07 66.89022 -48.36357 12407 ft 134 kts 252°
2026-04-21 21:07 66.88974 -48.38737 12411 ft 135 kts 252°
2026-04-21 21:07 66.88925 -48.41120 12410 ft 135 kts 252°
2026-04-21 21:08 66.88877 -48.43465 12411 ft 134 kts 252°
2026-04-21 21:08 66.88828 -48.45829 12410 ft 134 kts 252°
2026-04-21 21:08 66.88778 -48.48193 12410 ft 134 kts 252°
2026-04-21 21:08 66.88728 -48.50562 12415 ft 134 kts 252°
2026-04-21 21:09 66.88677 -48.52942 12410 ft 135 kts 252°
2026-04-21 21:09 66.88626 -48.55328 12413 ft 135 kts 252°
2026-04-21 21:09 66.88575 -48.57713 12412 ft 135 kts 252°
2026-04-21 21:09 66.88524 -48.60090 12416 ft 134 kts 252°
2026-04-21 21:10 66.88471 -48.62467 12412 ft 135 kts 252°
2026-04-21 21:10 66.88420 -48.64850 12410 ft 135 kts 252°
2026-04-21 21:10 66.88367 -48.67222 12410 ft 134 kts 252°
2026-04-21 21:10 66.88315 -48.69587 12411 ft 134 kts 252°
2026-04-21 21:11 66.88261 -48.71952 12411 ft 134 kts 252°
2026-04-21 21:11 66.88208 -48.74324 12415 ft 134 kts 252°
2026-04-21 21:11 66.88154 -48.76700 12413 ft 134 kts 252°
2026-04-21 21:11 66.88101 -48.79035 12410 ft 134 kts 252°
2026-04-21 21:12 66.88046 -48.81398 12414 ft 133 kts 252°
2026-04-21 21:12 66.87991 -48.83753 12411 ft 133 kts 252°
2026-04-21 21:12 66.87936 -48.86111 12407 ft 133 kts 252°
2026-04-21 21:12 66.87882 -48.88464 12405 ft 133 kts 252°
2026-04-21 21:13 66.87826 -48.90806 12411 ft 132 kts 252°
2026-04-21 21:13 66.87770 -48.93143 12408 ft 133 kts 252°
2026-04-21 21:13 66.87713 -48.95494 12413 ft 133 kts 251°
2026-04-21 21:13 66.87657 -48.97851 12411 ft 133 kts 251°
2026-04-21 21:14 66.87601 -49.00199 12409 ft 133 kts 251°
2026-04-21 21:14 66.87543 -49.02546 12408 ft 133 kts 251°
2026-04-21 21:14 66.87485 -49.04876 12409 ft 134 kts 251°
2026-04-21 21:14 66.87427 -49.07234 12409 ft 133 kts 251°
2026-04-21 21:15 66.87369 -49.09586 12409 ft 133 kts 251°
2026-04-21 21:15 66.87311 -49.11922 12407 ft 132 kts 251°
2026-04-21 21:15 66.87252 -49.14251 12404 ft 132 kts 251°
2026-04-21 21:15 66.87193 -49.16582 12404 ft 132 kts 251°
2026-04-21 21:16 66.87133 -49.18928 12407 ft 133 kts 251°
2026-04-21 21:16 66.87073 -49.21272 12399 ft 133 kts 251°
2026-04-21 21:16 66.87014 -49.23611 12407 ft 133 kts 251°
2026-04-21 21:16 66.86953 -49.25950 12405 ft 132 kts 251°
2026-04-21 21:17 66.86891 -49.28295 12406 ft 134 kts 251°
2026-04-21 21:17 66.86829 -49.30668 12402 ft 134 kts 251°
2026-04-21 21:17 66.86768 -49.33022 12403 ft 133 kts 251°
2026-04-21 21:17 66.86706 -49.35368 12400 ft 133 kts 251°
2026-04-21 21:18 66.86644 -49.37684 12404 ft 133 kts 251°
2026-04-21 21:18 66.86581 -49.40037 12400 ft 133 kts 251°
2026-04-21 21:18 66.86518 -49.42384 12402 ft 133 kts 251°
2026-04-21 21:18 66.86455 -49.44727 12402 ft 133 kts 251°
2026-04-21 21:19 66.86391 -49.47064 12400 ft 132 kts 250°
2026-04-21 21:19 66.86327 -49.49402 12403 ft 132 kts 251°
2026-04-21 21:19 66.86262 -49.51745 12402 ft 133 kts 251°
2026-04-21 21:19 66.86197 -49.54107 12401 ft 134 kts 251°
2026-04-21 21:20 66.86132 -49.56461 12403 ft 133 kts 251°
2026-04-21 21:20 66.86067 -49.58780 12402 ft 133 kts 251°
2026-04-21 21:20 66.86002 -49.61115 12398 ft 133 kts 250°
2026-04-21 21:20 66.85935 -49.63455 12398 ft 132 kts 250°
2026-04-21 21:21 66.85868 -49.65793 12399 ft 132 kts 250°
2026-04-21 21:21 66.85802 -49.68134 12401 ft 132 kts 250°
2026-04-21 21:21 66.85735 -49.70472 12400 ft 133 kts 250°
2026-04-21 21:21 66.85667 -49.72820 12400 ft 133 kts 250°
2026-04-21 21:22 66.85598 -49.75176 12404 ft 134 kts 250°
2026-04-21 21:22 66.85530 -49.77543 12400 ft 134 kts 250°
2026-04-21 21:22 66.85460 -49.79910 12396 ft 135 kts 250°
2026-04-21 21:22 66.85391 -49.82285 12399 ft 135 kts 250°
2026-04-21 21:23 66.85320 -49.84660 12396 ft 135 kts 250°
2026-04-21 21:23 66.85248 -49.87049 12396 ft 136 kts 250°
2026-04-21 21:23 66.85180 -49.89399 12386 ft 134 kts 250°
2026-04-21 21:23 66.85109 -49.91757 12392 ft 134 kts 250°
2026-04-21 21:24 66.85038 -49.94110 12394 ft 134 kts 250°
2026-04-21 21:24 66.84966 -49.96467 12387 ft 133 kts 249°
2026-04-21 21:24 66.84895 -49.98806 12393 ft 132 kts 249°
2026-04-21 21:24 66.84821 -50.01159 12386 ft 135 kts 250°
2026-04-21 21:25 66.84749 -50.03539 12386 ft 133 kts 251°
2026-04-21 21:25 66.84680 -50.05905 12384 ft 135 kts 249°
2026-04-21 21:25 66.84601 -50.08271 12384 ft 135 kts 249°
2026-04-21 21:25 66.84526 -50.10650 12386 ft 136 kts 250°
2026-04-21 21:26 66.84453 -50.13034 12383 ft 134 kts 249°
2026-04-21 21:26 66.84379 -50.15392 12381 ft 133 kts 249°
2026-04-21 21:26 66.84307 -50.17711 12377 ft 131 kts 248°
2026-04-21 21:26 66.84236 -50.19983 12372 ft 126 kts 247°
2026-04-21 21:27 66.84167 -50.22164 12375 ft 122 kts 248°
2026-04-21 21:27 66.84094 -50.24331 12368 ft 124 kts 247°
2026-04-21 21:27 66.84020 -50.26532 12376 ft 126 kts 248°
2026-04-21 21:27 66.83946 -50.28770 12376 ft 129 kts 248°
2026-04-21 21:28 66.83870 -50.31087 12198 ft 132 kts 248°
2026-04-21 21:28 66.83799 -50.33358 12008 ft 130 kts 249°
2026-04-21 21:28 66.83651 -50.37922 11548 ft 128 kts 248°
2026-04-21 21:29 66.83576 -50.40171 11314 ft 127 kts 248°
2026-04-21 21:29 66.83505 -50.42366 11089 ft 122 kts 247°
2026-04-21 21:29 66.83435 -50.44468 10867 ft 118 kts 246°
2026-04-21 21:29 66.83363 -50.46552 10643 ft 118 kts 246°
2026-04-21 21:30 66.83291 -50.48642 10425 ft 119 kts 247°
2026-04-21 21:30 66.83223 -50.50715 10205 ft 116 kts 246°
2026-04-21 21:30 66.83153 -50.52739 9972 ft 116 kts 247°
2026-04-21 21:30 66.83082 -50.54793 9730 ft 117 kts 247°
2026-04-21 21:31 66.83017 -50.56807 9469 ft 110 kts 245°
2026-04-21 21:31 66.82955 -50.58685 9223 ft 103 kts 245°
2026-04-21 21:31 66.82886 -50.60523 8988 ft 107 kts 246°
2026-04-21 21:31 66.82818 -50.62418 8760 ft 110 kts 247°
2026-04-21 21:32 66.82750 -50.64370 8529 ft 111 kts 248°
2026-04-21 21:32 66.82683 -50.66330 8300 ft 111 kts 248°
2026-04-21 21:32 66.82614 -50.68294 8071 ft 112 kts 249°
2026-04-21 21:32 66.82543 -50.70289 7844 ft 114 kts 249°
2026-04-21 21:33 66.82476 -50.72276 7612 ft 112 kts 249°
2026-04-21 21:33 66.82407 -50.74232 7387 ft 110 kts 249°
2026-04-21 21:33 66.82338 -50.76167 7158 ft 110 kts 249°
2026-04-21 21:33 66.82269 -50.78098 6939 ft 110 kts 250°
2026-04-21 21:34 66.82199 -50.80035 6713 ft 110 kts 251°
2026-04-21 21:34 66.82133 -50.81928 6471 ft 105 kts 250°
2026-04-21 21:34 66.82069 -50.83736 6205 ft 99 kts 251°
2026-04-21 21:34 66.82009 -50.85418 5974 ft 95 kts 250°
2026-04-21 21:35 66.81943 -50.87129 5739 ft 101 kts 252°
2026-04-21 21:35 66.81877 -50.88927 5517 ft 103 kts 252°
2026-04-21 21:35 66.81818 -50.90655 5475 ft 94 kts 251°
2026-04-21 21:35 66.81761 -50.92245 5469 ft 87 kts 249°
2026-04-21 21:36 66.81700 -50.93772 5473 ft 91 kts 248°
2026-04-21 21:36 66.81635 -50.95443 5491 ft 99 kts 250°
2026-04-21 21:36 66.81564 -50.97269 5485 ft 108 kts 251°
2026-04-21 21:36 66.81494 -50.99219 5488 ft 114 kts 253°
2026-04-21 21:37 66.81419 -51.01291 5483 ft 121 kts 253°
2026-04-21 21:37 66.81341 -51.03449 5482 ft 123 kts 254°
2026-04-21 21:37 66.81266 -51.05601 5479 ft 124 kts 254°
2026-04-21 21:37 66.81182 -51.07769 5476 ft 122 kts 254°
2026-04-21 21:38 66.81152 -51.09937 5472 ft 126 kts 265°
2026-04-21 21:38 66.81428 -51.12130 5467 ft 136 kts 286°
2026-04-21 21:38 66.82051 -51.14042 5468 ft 147 kts 310°
2026-04-21 21:38 66.82948 -51.15378 5460 ft 150 kts 323°
2026-04-21 21:39 66.83861 -51.16641 5436 ft 150 kts 322°
2026-04-21 21:39 66.84753 -51.17890 5312 ft 148 kts 322°
2026-04-21 21:39 66.85664 -51.19166 5180 ft 150 kts 322°
2026-04-21 21:39 66.86586 -51.20456 5063 ft 152 kts 323°
2026-04-21 21:40 66.87511 -51.21751 4936 ft 152 kts 323°
2026-04-21 21:40 66.88507 -51.22688 4795 ft 158 kts 348°
2026-04-21 21:40 66.89608 -51.22378 4607 ft 162 kts 20°
2026-04-21 21:40 66.90541 -51.20817 4422 ft 160 kts 51°
2026-04-21 21:41 66.91079 -51.18423 4237 ft 153 kts 81°
2026-04-21 21:41 66.91111 -51.15848 4053 ft 141 kts 110°
2026-04-21 21:41 66.90667 -51.13757 3870 ft 131 kts 140°
2026-04-21 21:41 66.89906 -51.12642 3691 ft 123 kts 162°
2026-04-21 21:42 66.89335 -51.11012 3494 ft 136 kts 111°
2026-04-21 21:42 66.89506 -51.08577 3308 ft 145 kts 71°
2026-04-21 21:42 66.90115 -51.06617 3104 ft 144 kts 37°
2026-04-21 21:42 66.91054 -51.06035 2912 ft 138 kts
2026-04-21 21:43 66.92008 -51.05971 2727 ft 135 kts
2026-04-21 21:43 66.92901 -51.05938 2708 ft 122 kts
2026-04-21 21:43 66.93691 -51.05686 2700 ft 107 kts 37°
2026-04-21 21:43 66.94099 -51.04293 2621 ft 94 kts 66°
2026-04-21 21:44 66.94422 -51.02964 2504 ft 84 kts 69°
2026-04-21 21:44 66.94705 -51.01722 2381 ft 79 kts 70°
2026-04-21 21:44 66.94978 -51.00497 2298 ft 78 kts 70°
2026-04-21 21:44 66.95243 -50.99307 2209 ft 76 kts 70°
2026-04-21 21:45 66.95497 -50.98128 2116 ft 75 kts 71°
2026-04-21 21:45 66.95746 -50.96961 2005 ft 74 kts 71°
2026-04-21 21:45 66.95991 -50.95811 1906 ft 73 kts 69°
2026-04-21 21:45 66.96235 -50.94666 1789 ft 72 kts 68°
2026-04-21 21:46 66.96473 -50.93553 1670 ft 70 kts 68°
2026-04-21 21:46 66.96704 -50.92465 1564 ft 70 kts 68°
2026-04-21 21:46 66.96944 -50.91341 1462 ft 73 kts 68°
2026-04-21 21:46 66.97178 -50.90233 1348 ft 69 kts 68°
2026-04-21 21:47 66.97410 -50.89144 1241 ft 70 kts 68°
2026-04-21 21:47 66.97640 -50.88057 1137 ft 69 kts 66°
2026-04-21 21:47 66.97867 -50.86986 1038 ft 70 kts 68°
2026-04-21 21:47 66.98097 -50.85905 934 ft 69 kts 66°
2026-04-21 21:48 66.98313 -50.84898 913 ft 61 kts 66°
2026-04-21 21:48 66.98505 -50.84003 906 ft 54 kts 64°
2026-04-21 21:48 66.98671 -50.83227 893 ft 48 kts 68°
2026-04-21 21:48 66.98822 -50.82513 912 ft 46 kts 64°
2026-04-21 21:49 66.98994 -50.81689 888 ft 61 kts 65°
2026-04-21 21:49 66.99202 -50.80736 834 ft 61 kts 65°
2026-04-21 21:49 66.99423 -50.79789 751 ft 63 kts 68°
2026-04-21 21:49 66.99616 -50.78793 643 ft 62 kts 68°
2026-04-21 21:50 66.99752 -50.78162 577 ft 60 kts 66°
2026-04-21 21:50 66.99943 -50.77196 448 ft 65 kts 67°
2026-04-21 21:50 67.00169 -50.76141 350 ft 66 kts 71°
2026-04-21 21:50 67.00392 -50.75127 246 ft 64 kts 59°
2026-04-21 21:51 67.00599 -50.74135 147 ft 63 kts 63°
2026-04-21 21:51 67.00795 -50.73229 125 ft 51 kts 66°
2026-04-21 21:51 67.00918 -50.72582 140 ft 30 kts 62°
2026-04-21 21:51 67.00990 -50.72246 147 ft 13 kts 76°
2026-04-21 21:52 67.01035 -50.72056 151 ft 17 kts 61°
2026-04-21 21:52 67.01114 -50.71689 154 ft 30 kts 64°
2026-04-21 21:52 67.01214 -50.71210 153 ft 22 kts 61°
2026-04-21 21:52 67.01297 -50.70822 156 ft 30 kts 61°
2026-04-21 21:53 67.01364 -50.70466 159 ft 18 kts 98°
2026-04-21 21:53 67.01252 -50.70313 156 ft 15 kts 169°
2026-04-21 21:53 67.01153 -50.70233 154 ft 10 kts 110°
2026-04-21 21:53 67.01190 -50.70036 154 ft 15 kts 62°
2026-04-21 21:54 67.01234 -50.69825 153 ft 12 kts 58°
2026-04-21 21:54 67.01269 -50.69667 152 ft 10 kts 56°
2026-04-21 21:54 67.01243 -50.69612 152 ft 9 kts 194°
2026-04-21 21:54 67.01196 -50.69750 153 ft 4 kts 230°
2026-04-21 21:55 67.01196 -50.69751 153 ft 0 kts 230°
2026-04-21 21:55 67.01213 -50.69722 153 ft 10 kts 63°
2026-04-21 21:56 67.01281 -50.69466 152 ft 23 kts 44°
2026-04-21 21:56 67.01412 -50.69206 153 ft 24 kts 34°
2026-04-21 21:56 67.01554 -50.68986 159 ft 20 kts
2026-04-21 21:56 67.01666 -50.69135 162 ft 19 kts 329°
2026-04-21 21:57 67.01776 -50.69296 161 ft 16 kts 326°
2026-04-21 21:57 67.01823 -50.69408 162 ft 8 kts 304°
2026-04-21 21:57 67.01834 -50.69433 149 ft 0 kts 340°
2026-04-21 21:57 67.01858 -50.69413 165 ft 3 kts 333°
2026-04-21 21:58 67.01880 -50.69401 162 ft 5 kts 98°
2026-04-21 21:58 67.01857 -50.69387 167 ft 4 kts 185°
2026-04-21 21:58 67.01856 -50.69387 168 ft 0 kts 176°